User: anonymous   Login
Location: Unspecified
(0.0000°N, 0.0000°E)
Time: 22:40:53
(UTC+02:00)
Language:

Delta 2 Rocket - Orbit

View from above orbital plane
View from above orbital plane
View from above satellite
View from above satellite

Ground track
Ground track

The orbit data is extracted from the following two-line orbital elements,

1 20453U 90008B   17200.90384543 +.00002028 +00000-0 +11960-3 0  9999
2 20453 035.6254 038.0837 0288149 080.2797 283.0333 14.83214553453061
Epoch (UTC): 19 July 2017 21:41:32
Eccentricity: 0.0288149
inclination: 35.6254°
perigee height: 417 km
apogee height: 821 km
right ascension of ascending node: 38.0837°
argument of perigee: 80.2797°
revolutions per day: 14.83214553
mean anomaly at epoch: 283.0333°
orbit number at epoch: 45306

The dashed part of the orbit path shows where the satellite is in the earth's shadow,  

DLR